Location: Newark
(40.4881°N, 5.6117°W)
Time: 13:26:16
(UTC+00:00)

Tiangong 2 - Visible Passes

Search period start: 18 March 2019 00:00
Search period end: 28 March 2019 00:00
Orbit: 379 x 390 km, 42.8° (Epoch: 18 March)

Date Brightness Start Highest point End Pass type
(mag) Time Alt. Az. Time Alt. Az. Time Alt. Az.
18 Mar 4.5 03:52:49 12° ENE 03:52:49 12° ENE 03:53:09 10° ENE visible
18 Mar 1.4 05:25:02 21° WNW 05:26:56 62° N 05:30:06 10° E visible
19 Mar 2.5 04:28:18 38° ENE 04:28:18 38° ENE 04:30:33 10° E visible
19 Mar 1.1 06:01:05 10° WNW 06:04:16 70° SSW 06:07:26 10° ESE visible
20 Mar 1.0 05:03:51 42° WNW 05:04:48 80° NNE 05:07:59 10° ESE visible
21 Mar 3.7 04:07:15 21° E 04:07:15 21° E 04:08:26 10° E visible
21 Mar 1.6 05:39:28 13° W 05:42:00 42° SSW 05:45:02 10° SE visible
22 Mar 1.3 04:42:58 61° SSE 04:42:58 61° SSE 04:45:45 10° ESE visible
23 Mar 2.3 05:18:48 22° WSW 05:19:39 25° SSW 05:22:20 10° SSE visible
24 Mar 3.6 04:22:34 15° SE 04:22:34 15° SE 04:23:18 10° SE visible
25 Mar 3.6 04:58:45 11° S 04:58:45 11° S 04:59:03 10° S visible
